Regional Weather Roundup
Issued by NWS Sterling, VA

Home | Current Version | Previous Version | Graphics & Text | Print | Product List | Glossary On
Versions: 1 2 3 4 5 6 7 8 9 10 11 12 13 14 15 16 17 18 19 20 21 22 23 24 25 26 27 28 29 30 31 32 33 34 35 36 37 38 39 40 41 42 43 44 45 46 47 48 49 50
000
ASUS41 KLWX 281110
RWRLWX

REGIONAL WEATHER ROUNDUP
NATIONAL WEATHER SERVICE BALTIMORE MD/WASHINGTON DC
700 AM EDT THU MAY 28 2015

Note: "FAIR" indicates few or no clouds below 12,000 feet
with no significant weather and/or obstructions to visibility.
 TC=TEMPERATURE CELSIUS

 * =Non NWS site. Station does not report precipitation (e.g. rain,
    snow, etc.), thunder, or fog.

DCZ001-MDZ009-015-VAZ040>042-051-053>054-281200-
WASHINGTON METRO

CITY           SKY/WX    TMP DP  RH WIND       PRES   REMARKS
WASHINGTON NAT CLOUDY    73  68  83 S9        30.18R
DULLES         PTSUNNY   68  68 100 CALM      30.17R
ANDREWS AFB    MOSUNNY   70  68  93 S7        30.17R
FT BELVOIR     MOSUNNY   68  67  96 VRB2      30.17R
QUANTICO       PTSUNNY   71  66  84 VRB6      30.18R
COLLEGE PARK*  MOSUNNY   70  70 100 CALM      30.17R
LEESBURG*      SUNNY     68  68 100 CALM      30.18R
MANASSAS*      SUNNY     66  66 100 S3        30.17R
GAITHERSBURG*  SUNNY     66  63  88 CALM      30.21R

$$

MDZ006>007-011-014-281200-
BALTIMORE METRO

CITY           SKY/WX    TMP DP  RH WIND       PRES   REMARKS
BWI AIRPORT    PTSUNNY   69  67  93 CALM      30.16R
MD SCIENCE CTR   N/A     72  68  87 MISG      30.17R
MARTIN STATE   MOSUNNY   72  72 100 CALM      30.17R
ANNAPOLIS      PTSUNNY   71  67  87 S3        30.16R
FORT MEADE*    MOSUNNY   63  61  94 CALM      30.19R

$$

MDZ012-015-019>023-281200-
MARYLAND EASTERN SHORE

CITY           SKY/WX    TMP DP  RH WIND       PRES   REMARKS
OCEAN CITY     MOSUNNY   67  64  90 SW13      30.20R
SALISBURY      CLOUDY    68  66  93 SE3       30.19R
BAY BRIDGE AP*   N/A    N/A N/A N/A S6        30.17R
CAMBRIDGE*     MOSUNNY   73  70  88 S6        30.17R
EASTON*        PTSUNNY   73  73 100 SW5       30.21R

$$

MDZ017>025-281200-
SOUTHERN MARYLAND

CITY           SKY/WX    TMP DP  RH WIND       PRES   REMARKS
PATUXENT RIVER PTSUNNY   72  68  87 SW13      30.16R
ST INIGOES     PTSUNNY   72  68  87 S7        30.17R
LEONARDTOWN*   PTSUNNY   70  66  88 S5        30.19R

$$

MDZ003>005-281200-
NORTH CENTRAL MARYLAND

CITY           SKY/WX    TMP DP  RH WIND       PRES   REMARKS
FREDERICK*     SUNNY     68  68 100 S6        30.18R
HAGERSTOWN APT MOSUNNY   71  65  81 CALM      30.17R
WESTMINSTER*   SUNNY     66  66 100 CALM      30.17R

$$

MDZ501>502-281200-
WESTERN MARYLAND

CITY           SKY/WX    TMP DP  RH WIND       PRES   REMARKS
OAKLAND*       PTSUNNY   61 N/A N/A W7        30.27R
CUMBERLAND*    CLOUDY    61  61 100 CALM      30.23R VSB 1/2

$$

VAZ025>031-281200-
SHENANDOAH VALLEY

CITY           SKY/WX    TMP DP  RH WIND       PRES   REMARKS
WINCHESTER*    MOSUNNY   70  61  73 W6        30.18R
FRONT ROYAL*   FAIR      68  63  83 S3        30.18R
LURAY*         FAIR      64  64 100 CALM      30.20R
NEW MARKET*    FAIR      63  62  97 CALM      30.20R
STAUNTON*      MOSUNNY   64  61  91 CALM      30.24R
WAYNESBORO*    FAIR      60  60  98 CALM      30.22R

$$

WVZ021-048>050-054>055-281200-
EASTERN WEST VIRGINIA PANHANDLE

CITY           SKY/WX    TMP DP  RH WIND       PRES   REMARKS
MARTINSBURG    MOSUNNY   66  63  90 CALM      30.18R
PETERSBURG*    CLOUDY    60  58  93 CALM      30.22R FOG

$$

VAZ036>039-050-281200-
CENTRAL FOOTHILLS

CITY           SKY/WX    TMP DP  RH WIND       PRES   REMARKS
CHARLOTTESVILL MOSUNNY   65  63  93 CALM      30.17R
CULPEPER*      MOSUNNY   62  62  99 CALM      30.17R
ORANGE*        SUNNY     66  64  94 CALM      30.19R
GORDONSVILLE*  FAIR      64  63  97 CALM      30.17R
WARRENTON*     FAIR      68  67  99 CALM      30.17R

$$

VAZ055>057-281200-
NORTH AND CENTRAL PIEDMONT

CITY           SKY/WX    TMP DP  RH WIND       PRES   REMARKS
FREDERICKSBRG* MOSUNNY   71  70  95 CALM      30.17R
STAFFORD*      MOSUNNY   68  65  90 CALM      30.21R

$$

NCZ024-NYZ072-PAZ021-071-VAZ022-071-281200-
OTHER REGIONAL OBSERVATIONS

CITY           SKY/WX    TMP DP  RH WIND       PRES   REMARKS
NEW YORK CITY  CLOUDY    72  66  81 W3        30.18R
PHILADELPHIA   CLOUDY    71  67  87 S3        30.17R
PITTSBURGH     CLOUDY    63  59  87 CALM      30.21R
ROANOKE        MOCLDY    66  63  90 CALM      30.24R
RICHMOND       CLOUDY    72  68  87 S6        30.19R
RALEIGH        MOCLDY    69  67  93 SW7       30.22R FOG

$$

ANZ530>537-281200-
MARINE OBSERVATIONS

STATION/POSITION TIME  TEMP    WIND        PRES
                       AIR SEA DIR/SP/G
                 (UTC) (F)     (DEG/KT/KT) (MB)
THOMAS PT LIGHT  1100   70 70  190/  6/  6 1022.1R
BALT KEY BRIDGE  1000   71     190/  5/  6 1020.5R
COVE POINT       1000   71     240/  9/ 14 1021.7R
LEWISETTA        1000   72 74              1021.3R
SOLOMONS ISLAND  1000      70                N/A
PINEY POINT      1000          240/ 10/ 12   N/A

$$



USA.gov is the U.S. government's official web portal to all federal, state and local government web resources and services.